Terminal Aerodrome Forecast
Issued by NWS Charleston, WV

Current Version | Previous Version | Graphics & Text | Print | Product List | Glossary On
Versions: 1 2 3 4 5 6 7 8 9 10 11 12 13 14 15 16 17 18 19 20 21 22 23 24 25 26 27 28 29 30
000
FTUS41 KRLX 260200 AAA
TAFHTS
TAF AMD
KHTS 260240Z 2603/2624 09002KT P6SM FEW250
     FM260700 00000KT 6SM BR FEW250
     FM260900 VRB02KT 4SM BR FEW250
     FM261300 13005KT P6SM FEW045=

USA.gov is the U.S. government's official web portal to all federal, state and local government web resources and services.